EW2288 Weather Reports


time (UTC)temp
C
wind
direction
speed
KPH
gust
KPH
rain 1hr
cm
rain 24hr
cm
rain mn
cm
humidity
%
barometer
mb
20260507142016 9 293 8.0 22.5 0.00 0.00 0.00 53 1014.0
20260507141016 9 270 8.0 17.7 0.00 0.00 0.00 52 1013.9
20260507140016 8 293 8.0 17.7 0.00 0.00 0.00 55 1013.9
20260507135016 8 23 4.8 9.7 0.00 0.00 0.00 59 1013.9
20260507134016 7 338 4.8 12.9 0.00 0.00 0.00 61 1013.9
20260507133036 7 0 4.8 14.5 0.00 0.00 0.00 63 1013.8
20260507132036 8 338 3.2 12.9 0.00 0.00 0.00 62 1013.7
20260507131016 7 338 4.8 12.9 0.00 0.00 0.00 62 1013.7
20260507130016 7 45 3.2 9.7 0.00 0.00 0.00 63 1013.7
20260507125016 8 315 8.0 16.1 0.00 0.00 0.00 56 1013.7
20260507124056 8 293 6.4 14.5 0.00 0.00 0.00 49 1013.5
20260507123016 8 270 4.8 17.7 0.00 0.00 0.00 51 1013.5
20260507122016 8 293 4.8 11.3 0.00 0.00 0.00 54 1013.4
20260507121016 7 248 3.2 12.9 0.00 0.00 0.00 52 1013.4
20260507120016 7 248 4.8 11.3 0.00 0.00 0.00 52 1013.3
20260507115036 7 270 6.4 19.3 0.00 0.00 0.00 52 1013.4
20260507114016 7 270 8.0 16.1 0.00 0.00 0.00 53 1013.2
20260507113016 7 270 4.8 16.1 0.00 0.00 0.00 52 1013.2
20260507112016 8 225 6.4 12.9 0.00 0.00 0.00 47 1013.1
20260507111036 8 270 8.0 17.7 0.00 0.00 0.00 46 1012.9
20260507110016 8 225 4.8 14.5 0.00 0.00 0.00 49 1012.8
20260507105016 8 248 6.4 14.5 0.00 0.00 0.00 48 1012.7
20260507104016 8 248 4.8 12.9 0.00 0.00 0.00 49 1012.6
20260507103016 7 225 4.8 11.3 0.00 0.00 0.00 49 1012.5
20260507102016 7 248 6.4 16.1 0.00 0.00 0.00 49 1012.4
20260507101016 7 248 6.4 14.5 0.00 0.00 0.00 50 1012.4
20260507100016 7 270 6.4 17.7 0.00 0.00 0.00 50 1012.4
20260507095015 7 270 6.4 16.1 0.00 0.00 0.00 51 1012.3
20260507094015 7 293 3.2 8.0 0.00 0.00 0.00 57 1012.4
20260507093016 8 293 4.8 14.5 0.00 0.00 0.00 54 1012.2
20260507092016 8 248 4.8 11.3 0.00 0.00 0.00 48 1012.1
20260507091015 9 158 3.2 14.5 0.00 0.00 0.00 49 1012.1
20260507090015 8 248 3.2 11.3 0.00 0.00 0.00 48 1012.1
20260507085037 9 248 8.0 19.3 0.00 0.00 0.00 46 1012.1
20260507084018 9 248 3.2 9.7 0.00 0.00 0.00 52 1012.0
20260507083017 8 225 4.8 12.9 0.00 0.00 0.00 51 1011.9
20260507082017 8 225 3.2 8.0 0.00 0.00 0.00 57 1011.8
20260507081057 8 158 3.2 9.7 0.00 0.00 0.00 61 1011.8
20260507080017 7 158 3.2 6.4 0.00 0.00 0.00 63 1011.7
20260507075017 6 158 6.4 12.9 0.00 0.00 0.00 65 1011.6
20260507074017 6 135 3.2 9.7 0.00 0.00 0.00 68 1011.6
20260507073017 5 135 3.2 9.7 0.00 0.00 0.00 69 1011.5
20260507072017 5 203 1.6 11.3 0.00 0.00 0.00 71 1011.5
20260507071037 4 203 1.6 6.4 0.00 0.00 0.00 74 1011.4
20260507070057 3 158 3.2 9.7 0.00 0.00 0.00 74 1011.3
20260507065017 3 225 3.2 8.0 0.00 0.00 0.00 76 1011.3
20260507064017 3 225 3.2 8.0 0.00 0.00 0.00 79 1011.2
20260507063017 2 248 1.6 6.4 0.00 0.00 0.00 82 1011.2
20260507062017 2 203 1.6 6.4 0.00 0.00 0.00 83 1011.1
20260507061017 2 225 3.2 9.7 0.00 0.00 0.00 86 1011.1
20260507060017 2 0.0 3.2 0.00 0.00 0.00 89 1011.0
20260507055017 1 248 1.6 6.4 0.00 0.00 0.00 89 1011.0
20260507054037 1 248 1.6 6.4 0.00 0.00 0.00 90 1010.9
20260507053017 0 248 4.8 14.5 0.00 0.00 0.00 91 1010.9
20260507052017 0 225 3.2 9.7 0.00 0.00 0.00 91 1010.8
20260507051017 0 225 1.6 8.0 0.00 0.00 0.00 91 1010.7
20260507050017 0 0.0 4.8 0.00 0.00 0.00 91 1010.6
20260507045017 0 270 1.6 4.8 0.00 0.00 0.00 92 1010.5
20260507044017 0 248 1.6 6.4 0.00 0.00 0.00 92 1010.5
20260507043017 0 203 1.6 8.0 0.00 0.00 0.00 92 1010.4
20260507042017 0 203 1.6 4.8 0.00 0.00 0.00 92 1010.4
20260507041017 -1 225 3.2 6.4 0.00 0.00 0.00 92 1010.3
20260507040017 -1 0.0 3.2 0.00 0.00 0.00 92 1010.3
20260507035037 -1 225 1.6 3.2 0.00 0.00 0.00 92 1010.2
20260507034017 -1 225 1.6 3.2 0.00 0.00 0.00 92 1010.2
20260507033017 -1 0.0 0.0 0.00 0.00 0.00 92 1010.2
20260507032017 -1 0.0 0.0 0.00 0.00 0.00 92 1010.1
20260507031017 -1 0.0 0.0 0.00 0.00 0.00 92 1010.1
20260507030017 -1 0.0 0.0 0.00 0.00 0.00 92 1010.2
20260507025017 -1 0.0 0.0 0.00 0.00 0.00 92 1010.1
20260507024017 -1 0.0 0.0 0.00 0.00 0.00 92 1010.1
20260507023037 -1 0.0 0.0 0.00 0.00 0.00 92 1010.0
20260507022017 -1 0.0 0.0 0.00 0.00 0.00 92 1010.1
20260507021017 -1 0.0 0.0 0.00 0.00 0.00 92 1010.0
20260507020017 -1 0.0 0.0 0.00 0.00 0.00 91 1010.0
20260507015057 -1 0.0 0.0 0.00 0.00 0.00 91 1009.9
20260507014016 -1 0.0 0.0 0.00 0.00 0.00 91 1009.9
20260507013017 -1 0.0 0.0 0.00 0.00 0.00 91 1009.8
20260507012016 -1 0.0 0.0 0.00 0.00 0.00 91 1009.8
20260507011016 0 0.0 3.2 0.00 0.00 0.00 91 1009.9
20260507010037 0 0.0 0.0 0.00 0.00 0.00 91 1009.9
20260507005036 0 0.0 0.0 0.00 0.00 0.00 91 1009.8
20260507004017 0 0.0 0.0 0.00 0.00 0.00 91 1009.9
20260507003017 0 0.0 0.0 0.00 0.00 0.00 91 1009.9
20260507002016 0 0.0 0.0 0.00 0.00 0.00 91 1009.8
20260507001016 0 0.0 1.6 0.00 0.00 0.00 91 1009.9
20260507000016 0 180 1.6 4.8 0.00 0.00 0.00 90 1009.8
20260506235016 0 158 1.6 6.4 0.00 0.00 0.00 90 1009.7
20260506234016 0 225 3.2 6.4 0.00 0.00 0.00 90 1009.7
20260506233016 0 203 1.6 4.8 0.00 0.00 0.00 90 1009.6
20260506232016 0 203 1.6 3.2 0.00 0.00 0.00 89 1009.5
20260506231016 0 0.0 3.2 0.00 0.00 0.00 89 1009.6
20260506230016 0 0.0 0.0 0.00 0.00 0.00 89 1009.6
20260506225016 0 0.0 1.6 0.00 0.00 0.00 89 1009.6
20260506224036 0 0.0 1.6 0.00 0.00 0.00 89 1009.6
20260506223016 0 0.0 1.6 0.00 0.00 0.00 88 1009.6
20260506222016 0 0.0 1.6 0.00 0.00 0.00 88 1009.6
20260506221016 0 0.0 3.2 0.00 0.00 0.00 88 1009.6
20260506220016 1 0.0 0.0 0.00 0.00 0.00 88 1009.5
20260506215015 1 0.0 0.0 0.00 0.00 0.00 88 1009.4
20260506214016 1 0.0 3.2 0.00 0.00 0.00 88 1009.4
20260506213016 1 0.0 1.6 0.00 0.00 0.00 87 1009.4
20260506212036 1 0.0 4.8 0.00 0.00 0.00 87 1009.4
20260506211015 1 0.0 0.0 0.00 0.00 0.00 87 1009.3
20260506210015 1 158 3.2 6.4 0.00 0.00 0.00 87 1009.3
20260506205015 1 180 3.2 8.0 0.00 0.00 0.00 87 1009.1
20260506204016 1 0.0 3.2 0.00 0.00 0.00 86 1009.1
20260506203015 1 158 1.6 6.4 0.00 0.00 0.00 86 1009.2
20260506202018 2 158 1.6 4.8 0.00 0.00 0.00 86 1009.0
20260506201018 2 158 3.2 6.4 0.00 0.00 0.00 85 1009.1
20260506200017 2 0.0 4.8 0.00 0.00 0.00 84 1009.1
20260506195022 2 158 3.2 6.4 0.00 0.00 0.00 84 1009.0
20260506194057 3 180 1.6 6.4 0.00 0.00 0.00 83 1009.0
20260506193017 3 158 1.6 4.8 0.00 0.00 0.00 83 1008.9
20260506192017 3 135 1.6 6.4 0.00 0.00 0.00 82 1008.8
20260506191017 3 158 3.2 8.0 0.00 0.00 0.00 80 1008.8
20260506190018 4 180 3.2 8.0 0.00 0.00 0.00 79 1008.8
20260506185017 3 180 1.6 6.4 0.00 0.00 0.00 78 1008.7
20260506184017 3 158 6.4 14.5 0.00 0.00 0.00 77 1008.5
20260506183017 5 248 4.8 11.3 0.00 0.00 0.00 77 1008.5
20260506182017 4 180 1.6 6.4 0.00 0.00 0.00 79 1008.4
20260506181017 3 158 6.4 11.3 0.00 0.00 0.00 79 1008.3
20260506180017 3 158 6.4 11.3 0.00 0.00 0.00 80 1008.3
20260506175037 3 158 4.8 11.3 0.00 0.00 0.00 79 1008.3
20260506174017 3 158 3.2 11.3 0.00 0.00 0.00 76 1008.2
20260506173017 5 135 6.4 17.7 0.00 0.00 0.00 71 1008.2
20260506172017 7 338 3.2 9.7 0.00 0.00 0.00 61 1008.2
20260506171017 7 293 4.8 16.1 0.00 0.00 0.00 62 1007.8
20260506170017 6 315 8.0 17.7 0.00 0.00 0.00 62 1007.7
20260506165017 6 315 4.8 12.9 0.00 0.00 0.00 64 1007.7
20260506164017 5 270 4.8 12.9 0.00 0.00 0.00 64 1007.7
20260506163017 5 293 1.6 4.8 0.00 0.00 0.00 63 1007.7
20260506162017 6 293 6.4 12.9 0.00 0.00 0.00 61 1007.8
20260506161017 6 293 6.4 12.9 0.00 0.00 0.00 61 1007.6
20260506160017 6 315 6.4 16.1 0.00 0.00 0.00 61 1007.6
20260506155017 6 338 8.0 17.7 0.00 0.03 0.00 60 1007.6
20260506154037 6 338 6.4 17.7 0.00 0.03 0.00 59 1007.5
20260506153017 6 315 6.4 16.1 0.00 0.03 0.00 59 1007.5
20260506152017 6 338 4.8 14.5 0.00 0.03 0.00 58 1007.6
20260506151017 7 0 6.4 14.5 0.00 0.03 0.00 57 1007.6
20260506150037 7 23 4.8 12.9 0.00 0.03 0.00 59 1007.6
20260506145017 6 45 4.8 12.9 0.00 0.03 0.00 62 1007.7
20260506144017 6 23 4.8 16.1 0.00 0.03 0.00 66 1007.8
20260506143017 6 0 3.2 8.0 0.00 0.03 0.00 67 1007.8